Wind_Speed
6 10 14 15 18 23 23 23 23 23 24 24 24 23 22 24 24 24 25 24 26 16 9 9 10 8 10 11 7 5 6 5 5 7 6 9 11 4 13 15 19 11 14
11 10 8 12 14 16 16 18 16 17 17 18 17 16 16 15 17 19 18 17 17 18 17 15 9 3 4 6 6 6 6 2 2 5 6 8 6 7 7 13 8 15 14
12 12 12 13 13 13 13 11 10 9 10 11 11 11 10 11 10 10 9 10 10 9 10 11 13 12 11 9 2 3 7 5 4 3 3 7 6 1 1 4 4 4 3
8 11 10 14 16 14 14 14 12 10 7 7 6 4 4 6 3 4 2 1 1 1 3 1 3 5 9 8 8 2 5 7 9 6 10 12 14 11 10 8 7 6 3
31 32 14 23 22 19 18 17 16 15 14 12 13 13 11 11 8 8 8 9 8 6 8 6 7 4 3 3 3 5 3 4 6 11 11 11 13 11 10 9 9 11 10
33 30 37 27 38 28 24 22 24 19 20 20 17 15 14 15 15 18 18 15 17 15 17 13 10 10 10 10 11 11 9 9 10 6 12 14 15 15 16 19 18 17 16
39 40 41 40 28 28 28 28 30 26 29 27 23 24 24 23 25 26 26 27 26 24 21 22 20 19 17 16 19 20 20 20 19 17 15 18 20 20 19 16 20 20 23
46 45 41 39 35 40 35 37 37 37 36 37 35 32 31 28 31 33 33 30 31 31 30 28 29 29 26 24 24 24 26 24 25 25 26 27 26 30 30 28 29 30 32
53 52 44 44 40 44 44 42 40 43 43 43 42 33 36 41 39 39 40 41 38 38 36 36 34 31 37 34 35 35 37 37 37 36 38 39 40 40 39 40 40 38 40
63 60 53 53 56 55 54 56 53 48 49 49 46 45 42 44 48 46 44 47 46 43 45 46 42 41 40 39 39 41 43 45 46 47 47 47 47 45 43 46 48 48 50
70 68 61 63 63 62 63 59 57 56 54 56 54 54 53 55 54 54 53 53 54 55 55 49 47 46 48 47 46 49 51 53 50 52 54 55 55 56 57 56 55 55 57
75 74 75 73 72 73 73 71 65 65 66 65 64 63 62 61 62 63 63 63 64 62 61 61 60 57 59 57 54 56 60 59 59 62 62 62 65 68 69 69 66 65 64
82 83 77 81 79 79 78 78 73 71 71 73 72 72 73 72 72 72 73 70 70 72 72 71 68 67 66 66 67 67 68 70 69 68 60 60 63 63 67 73 73 73 75
86 87 83 84 81 85 86 84 79 77 80 80 79 77 80 76 74 77 78 79 80 80 80 79 79 79 77 77 74 75 74 72 72 76 76 74 71 71 72 76 77 76 79
94 94 92 89 93 94 90 93 90 85 87 88 88 88 90 85 84 83 83 83 81 83 83 82 82 79 82 81 84 84 85 84 82 83 82 81 83 84 86 87 89 90 89
97 98 98 97 97 94 95 96 98 95 93 92 96 97 93 95 92 89 88 92 90 89 90 90 89 89 90 91 92 93 91 91 91 91 92 92 92 93 94 94 95 98 97
103 104 104 106 105 106 97 96 97 96 96 96 96 100 100 100 99 100 100 102 104 102 102 100 97 98 101 103 101 98 95 97 101 102 98 103 102 97 98 97 100 100 98
109 106 106 111 112 109 109 110 104 101 100 99 101 101 104 103 106 107 106 100 102 102 99 101 103 102 101 100 102 101 104 104 105 105 105 104 105 106 103 108 107 106 106
120 114 113 112 112 113 115 113 112 113 115 114 114 111 110 115 117 114 114 115 111 110 111 111 107 109 112 112 114 116 112 107 108 109 107 110 114 112 116 112 116 116 118
117 117 124 125 123 118 118 118 117 121 121 120 119 118 120 116 115 116 118 117 121 124 122 122 124 121 116 119 117 121 124 120 119 118 115 121 117 120 122 121 123 121 129
116 117 119 123 123 122 120 120 120 120 123 125 124 125 129 128 126 130 129 128 126 126 129 133 137 142 140 137 135 128 127 130 133 130 133 135 135 135 132 133 131 133 128
114 117 119 121 123 124 125 126 127 127 127 126 127 133 134 135 137 137 139 141 144 146 144 142 141 140 138 139 139 139 137 137 134 134 132 135 138 138 135 136 136 140 138
72 76 80 85 90 96 102 108 110 115 119 123 126 125 130 135 139 139 140 141 143 143 145 145 146 145 146 145 145 144 143 142 141 142 142 141 141 142 142 141 140 140 139
67 69 69 71 72 72 75 78 81 84 88 92 97 99 100 103 108 117 119 122 126 127 129 130 130 131 133 135 138 141 143 144 146 148 150 151 153 153 152 152 150 150 150
43 49 53 56 59 63 66 69 72 75 78 82 85 89 91 93 96 99 102 106 107 106 106 107 109 109 111 112 113 117 118 119 120 122 122 123 125 126 127 128 128 129 130
36 36 38 41 43 46 49 53 56 60 65 68 72 77 80 83 87 90 93 94 97 95 93 92 94 96 96 99 99 102 102 102 104 105 106 108 109 109 110 110 110 110 110
Wind_Direction
125 107 109 104 107 109 108 116 119 123 120 120 115 108 98 94 88 82 76 78 83 73 89 93 119 160 180 192 185 158 166 124 101 86 55 106 115 120 57 60 73 90 82
164 154 149 134 120 112 114 118 122 117 116 117 109 107 99 96 96 92 88 76 71 66 62 74 91 156 201 186 191 212 209 159 119 79 102 104 110 52 48 118 75 98 95
189 173 172 177 171 154 151 144 146 149 138 138 130 127 116 120 112 104 104 97 83 70 56 63 49 35 34 39 292 217 209 202 213 175 139 155 119 95 311 91 140 115 131
209 231 220 215 207 207 192 195 193 186 188 196 180 150 151 138 136 134 146 73 106 94 60 9 14 15 5 4 9 335 224 235 222 218 202 194 193 191 197 230 236 237 255
181 218 244 240 230 224 221 231 226 231 229 234 235 225 226 241 272 265 286 293 292 301 295 307 303 314 300 289 304 328 309 281 282 249 223 222 228 243 240 255 255 261 262
206 207 210 236 259 237 230 233 237 245 242 235 240 243 254 247 215 240 232 235 256 244 256 251 273 278 267 273 258 252 249 283 297 285 279 261 260 256 274 279 277 276 272
209 216 213 212 231 237 232 232 232 235 238 241 239 246 246 248 241 236 242 246 249 250 257 250 265 281 283 281 277 260 254 255 258 262 279 275 282 279 286 278 279 280 279
218 221 225 224 238 248 239 238 236 239 243 242 239 244 248 249 245 249 252 255 257 261 256 254 258 265 268 275 274 273 262 262 259 260 264 265 267 268 271 266 267 270 273
221 217 219 232 241 245 243 240 247 245 245 250 249 245 256 254 255 252 253 256 255 255 256 262 261 266 267 270 278 279 278 273 277 277 276 271 274 272 268 271 271 275 277
225 221 214 218 234 234 239 240 236 240 242 243 245 243 242 251 257 257 255 257 259 257 256 260 264 263 264 264 266 270 274 275 281 281 280 281 277 275 276 276 273 270 272
228 228 220 222 229 231 238 237 239 244 247 248 248 246 243 244 252 256 258 258 258 261 264 261 264 266 262 259 259 265 267 270 273 275 277 278 277 277 277 278 277 277 275
239 239 233 232 231 236 239 240 244 247 248 251 252 252 250 249 251 255 257 261 263 263 263 265 264 267 270 272 264 267 269 271 273 274 277 280 279 279 280 281 281 278 276
238 238 241 241 239 241 239 240 242 247 251 254 253 256 257 257 258 259 261 261 262 261 263 264 267 270 269 268 270 270 271 272 272 274 275 278 279 280 280 279 281 284 284
234 237 238 240 241 243 246 246 248 251 252 256 253 257 258 259 262 268 267 266 266 266 267 267 270 271 273 273 272 273 273 273 272 274 276 276 276 279 280 282 284 282 283
232 235 238 241 244 246 250 250 250 253 254 252 253 255 256 260 260 265 266 268 271 273 270 269 269 269 273 274 274 275 274 274 275 276 277 277 277 277 278 281 282 283 282
232 234 237 239 242 246 248 250 253 254 254 256 258 256 258 261 261 264 266 266 266 269 268 270 271 272 275 276 277 278 277 275 276 276 275 278 276 275 277 278 279 279 280
232 235 237 240 242 244 242 245 249 249 253 256 256 257 259 258 261 263 267 267 267 270 271 267 269 270 271 273 277 275 274 274 275 275 274 281 279 278 282 282 282 278 276
233 234 236 238 242 242 244 246 246 248 248 250 252 256 257 258 262 266 267 266 265 270 268 266 268 272 271 273 272 271 274 277 279 273 278 281 279 279 280 279 283 280 278
244 242 245 247 247 243 245 245 247 250 251 252 255 257 260 260 260 262 263 263 260 264 267 265 267 268 269 270 274 273 272 273 273 273 274 275 276 274 278 275 276 278 277
248 249 250 252 254 255 255 256 258 258 261 261 261 261 262 259 256 260 264 263 262 265 265 264 264 270 268 267 269 267 268 265 269 270 270 270 273 269 271 272 270 272 276
253 254 254 254 255 256 258 260 260 260 262 263 264 265 267 267 267 269 269 267 264 266 264 264 271 273 273 273 272 272 268 268 268 268 268 267 266 271 273 271 272 269 272
251 253 255 257 258 259 259 259 260 261 262 263 263 264 265 267 267 268 269 270 270 271 271 270 272 273 273 273 274 274 273 273 273 272 273 272 271 272 273 273 272 270 274
252 254 256 257 259 261 262 262 263 264 265 265 266 268 269 268 267 267 268 268 268 269 269 270 270 271 272 272 273 273 273 273 273 273 273 273 273 273 273 274 274 274 275
256 258 258 261 262 262 264 265 265 266 267 268 269 269 270 271 273 272 272 272 272 273 274 273 273 272 272 272 272 272 271 271 271 271 271 271 271 271 273 274 274 275 275
254 256 258 258 261 264 265 266 268 268 269 271 272 271 271 272 273 273 274 274 274 274 274 274 274 273 273 272 272 272 272 272 272 273 273 273 273 273 274 274 275 275 276
271 268 270 268 268 270 272 272 273 276 276 277 278 278 278 278 279 279 279 279 280 279 278 277 276 275 274 275 274 273 273 273 274 274 274 275 275 275 275 276 276 277 278
Height
10992 10994 10995 10995 10994 10993 10993 10994 10996 10999 10999 10998 11000 11002 11003 11005 11007 11008 11009 11009 11008 11012 11007 11008 11009 11008 11007 11006 11006 11005 11004 11002 11002 11007 11002 10999 10994 10991 10992 10995 10993 10996 10992
10990 10994 10998 10999 10998 10998 10999 11000 11001 11002 11001 11001 11002 11003 11004 11005 11007 11009 11011 11012 11012 11011 11011 11011 11013 11011 11011 11010 11009 11007 11005 11003 11003 11004 11007 11003 10999 10992 10993 10998 10996 10996 10998
10990 10991 10993 10997 10999 10998 10999 10999 10999 11001 11002 11002 11002 11002 11003 11005 11007 11008 11011 11012 11012 11013 11013 11013 11013 11013 11011 11009 11008 11008 11007 11005 11005 11005 11006 11006 11006 11003 10999 11001 11003 11003 11004
10992 10994 10991 10993 10997 10998 10998 10998 10998 10999 11001 11001 11001 11003 11004 11006 11006 11007 11008 11010 11011 11011 11012 11012 11014 11013 11012 11010 11008 11008 11010 11009 11008 11009 11009 11011 11013 11014 11012 11008 11006 11004 11002
10987 10988 10974 10987 10992 10993 10992 10996 10998 10998 10998 10999 11000 10999 11000 11004 11006 11007 11007 11007 11009 11009 11010 11009 11010 11012 11012 11012 11009 11007 11007 11008 11009 11009 11008 11009 11009 11009 11007 11007 11005 11002 10999
10976 10970 10973 10985 10987 10991 10988 10991 10993 10992 10994 10995 10997 10997 10997 10999 10997 10999 11000 11002 11004 11005 11005 11006 11007 11007 11009 11009 11008 11007 11005 11005 11004 11005 11004 11004 11003 11002 11002 11001 10999 10996 10995
10964 10962 10969 10977 10979 10979 10981 10983 10986 10987 10989 10990 10991 10991 10992 10993 10994 10993 10995 10996 10998 10999 11000 11002 11002 11002 11004 11004 11003 11002 11002 11001 11001 11001 11000 10999 10998 10997 10996 10995 10994 10994 10991
10954 10956 10960 10964 10968 10970 10972 10974 10977 10979 10982 10985 10985 10985 10985 10985 10986 10987 10988 10990 10991 10992 10993 10994 10995 10995 10996 10997 10997 10996 10995 10996 10996 10996 10996 10994 10993 10992 10992 10992 10992 10990 10986
10947 10951 10954 10959 10959 10962 10965 10966 10969 10971 10972 10975 10976 10977 10976 10976 10979 10980 10981 10982 10983 10984 10985 10985 10985 10987 10987 10989 10989 10989 10988 10987 10987 10987 10988 10988 10986 10986 10985 10983 10984 10982 10978
10934 10941 10946 10946 10946 10949 10950 10954 10955 10958 10963 10965 10967 10967 10967 10968 10968 10970 10972 10973 10974 10976 10976 10975 10979 10979 10979 10979 10979 10978 10978 10977 10977 10975 10974 10974 10974 10975 10974 10973 10972 10971 10968
10922 10930 10934 10935 10936 10938 10939 10941 10944 10948 10951 10952 10954 10955 10957 10957 10958 10959 10961 10962 10964 10964 10963 10964 10967 10967 10967 10969 10969 10968 10967 10964 10964 10962 10962 10960 10959 10958 10958 10957 10957 10956 10953
10907 10912 10919 10921 10921 10924 10925 10928 10930 10934 10937 10938 10940 10942 10942 10943 10945 10945 10947 10948 10950 10951 10952 10952 10952 10954 10953 10954 10956 10955 10954 10952 10951 10950 10950 10949 10946 10944 10941 10940 10939 10939 10937
10889 10894 10898 10902 10905 10906 10909 10912 10914 10917 10920 10922 10924 10925 10927 10929 10930 10931 10931 10933 10933 10935 10935 10935 10935 10936 10936 10936 10936 10936 10936 10934 10933 10933 10936 10933 10930 10928 10926 10923 10922 10919 10916
10870 10873 10878 10882 10886 10890 10894 10896 10899 10900 10902 10903 10906 10907 10909 10910 10911 10913 10913 10914 10916 10916 10917 10917 10916 10917 10918 10917 10916 10916 10916 10915 10914 10913 10913 10914 10911 10908 10906 10903 10902 10900 10895
10850 10856 10860 10863 10868 10872 10875 10877 10881 10883 10884 10885 10886 10887 10888 10890 10891 10893 10894 10893 10894 10894 10895 10895 10896 10897 10897 10897 10896 10896 10895 10893 10893 10891 10890 10890 10889 10887 10885 10881 10877 10874 10872
10831 10836 10841 10844 10848 10851 10854 10855 10857 10861 10863 10865 10867 10867 10868 10869 10869 10870 10872 10872 10873 10872 10872 10874 10873 10872 10872 10872 10872 10872 10870 10869 10868 10868 10867 10866 10866 10864 10862 10858 10854 10849 10846
10809 10815 10821 10823 10825 10828 10831 10834 10837 10838 10840 10842 10844 10845 10845 10846 10846 10846 10848 10849 10848 10849 10848 10847 10846 10846 10846 10846 10846 10845 10846 10844 10843 10841 10839 10837 10835 10834 10831 10828 10825 10824 10820
10789 10792 10796 10800 10805 10807 10810 10811 10813 10814 10816 10819 10819 10819 10819 10820 10821 10821 10820 10820 10820 10820 10819 10820 10819 10818 10817 10816 10815 10813 10813 10811 10811 10810 10807 10803 10801 10800 10798 10794 10792 10792 10789
10764 10769 10772 10775 10778 10782 10784 10787 10789 10791 10790 10793 10794 10794 10794 10794 10795 10793 10793 10794 10793 10792 10790 10792 10790 10788 10787 10787 10785 10783 10782 10780 10778 10776 10775 10773 10770 10768 10765 10762 10759 10759 10757
10742 10746 10749 10751 10753 10756 10758 10759 10760 10762 10763 10763 10760 10763 10763 10765 10762 10761 10761 10762 10761 10760 10760 10759 10757 10756 10755 10755 10753 10751 10751 10747 10745 10743 10741 10739 10738 10736 10732 10731 10728 10726 10719
10717 10721 10723 10726 10728 10728 10729 10731 10732 10733 10734 10733 10731 10726 10728 10729 10727 10727 10726 10724 10727 10724 10724 10722 10720 10720 10717 10716 10717 10714 10713 10708 10710 10702 10702 10700 10697 10696 10697 10695 10692 10687 10683
10691 10695 10696 10697 10698 10699 10699 10701 10701 10700 10700 10700 10699 10696 10698 10696 10694 10691 10690 10691 10687 10687 10684 10685 10681 10679 10678 10673 10671 10672 10672 10667 10666 10664 10661 10659 10658 10657 10652 10651 10650 10650 10643
10668 10671 10672 10672 10673 10672 10672 10672 10671 10670 10669 10668 10670 10667 10660 10659 10659 10656 10652 10647 10648 10645 10643 10643 10641 10636 10633 10632 10629 10627 10625 10622 10622 10619 10617 10616 10613 10611 10609 10608 10607 10604 10603
10654 10655 10655 10652 10650 10653 10651 10649 10648 10646 10644 10640 10637 10638 10633 10628 10617 10614 10615 10611 10610 10605 10603 10597 10596 10593 10587 10586 10583 10580 10577 10577 10575 10575 10574 10573 10569 10567 10566 10565 10563 10561 10558
10636 10636 10635 10636 10633 10631 10632 10628 10625 10623 10621 10616 10611 10608 10605 10599 10594 10590 10581 10574 10572 10570 10568 10561 10555 10553 10547 10544 10545 10536 10535 10536 10534 10531 10530 10528 10527 10525 10522 10520 10519 10515 10512
10623 10623 10621 10620 10619 10616 10613 10609 10608 10604 10599 10596 10589 10584 10579 10573 10565 10558 10553 10547 10537 10535 10532 10528 10521 10517 10514 10506 10508 10499 10500 10500 10495 10495 10493 10490 10488 10487 10484 10481 10478 10476 10472